| time (UTC) | temp F | wind direction | speed knots | gust knots | rain 1hr in | rain 24hr in | rain mn in | humidity % | barometer mb |
| 20260508005018 | 52 | 229 | 0.0 | 0.0 | 0.00 | 0.34 | 0.24 | 85 | 1006.0 |
| 20260508004539 | 52 | 248 | 0.0 | 0.0 | 0.00 | 0.34 | 0.24 | 85 | 1005.9 |
| 20260508004015 | 52 | 241 | 0.0 | 0.0 | 0.00 | 0.34 | 0.24 | 85 | 1005.7 |
| 20260508003533 | 52 | 263 | 0.0 | 0.0 | 0.00 | 0.34 | 0.24 | 84 | 1005.5 |
| 20260508003053 | 52 | 264 | 0.0 | 0.0 | 0.00 | 0.34 | 0.24 | 84 | 1005.4 |
| 20260508002525 | 52 | 238 | 0.0 | 0.0 | 0.00 | 0.34 | 0.24 | 84 | 1005.2 |
| 20260508002045 | 52 | 267 | 0.0 | 0.0 | 0.00 | 0.34 | 0.24 | 84 | 1005.4 |
| 20260508001605 | 52 | 277 | 0.0 | 0.0 | 0.00 | 0.34 | 0.24 | 84 | 1005.4 |
| 20260508001015 | 52 | 274 | 0.0 | 0.0 | 0.00 | 0.34 | 0.24 | 83 | 1005.4 |
| 20260508000535 | 52 | 250 | 0.0 | 0.0 | 0.00 | 0.34 | 0.24 | 83 | 1005.3 |
| 20260508000009 | 53 | 263 | 0.0 | 0.0 | 0.00 | 0.34 | 0.24 | 82 | 1005.4 |
| 20260507235530 | 53 | 230 | 0.0 | 0.0 | 0.00 | 0.46 | 0.24 | 82 | 1005.4 |
| 20260507235052 | 53 | 236 | 0.0 | 0.0 | 0.00 | 0.46 | 0.24 | 81 | 1005.5 |
| 20260507234508 | 53 | 231 | 0.0 | 0.0 | 0.00 | 0.46 | 0.24 | 81 | 1005.5 |
| 20260507234105 | 53 | 214 | 0.0 | 0.0 | 0.00 | 0.46 | 0.24 | 81 | 1005.5 |
| 20260507233515 | 54 | 228 | 0.0 | 0.0 | 0.00 | 0.46 | 0.24 | 80 | 1005.5 |
| 20260507233035 | 54 | 224 | 0.0 | 0.0 | 0.00 | 0.46 | 0.24 | 80 | 1005.5 |
| 20260507232509 | 54 | 254 | 0.0 | 0.9 | 0.00 | 0.46 | 0.24 | 80 | 1005.4 |
| 20260507232028 | 54 | 202 | 0.0 | 0.9 | 0.00 | 0.46 | 0.24 | 79 | 1005.5 |
| 20260507231549 | 54 | 219 | 0.0 | 0.9 | 0.00 | 0.46 | 0.24 | 79 | 1005.4 |
| 20260507231023 | 55 | 245 | 0.0 | 0.0 | 0.00 | 0.46 | 0.24 | 79 | 1005.2 |
| 20260507230547 | 55 | 241 | 0.0 | 0.0 | 0.00 | 0.46 | 0.24 | 79 | 1005.3 |
| 20260507230013 | 55 | 225 | 0.0 | 0.0 | 0.00 | 0.46 | 0.24 | 78 | 1005.2 |
| 20260507225537 | 55 | 236 | 0.0 | 0.9 | 0.00 | 0.46 | 0.24 | 78 | 1005.2 |
| 20260507225023 | 55 | 242 | 0.0 | 1.7 | 0.00 | 0.46 | 0.24 | 78 | 1005.1 |
| 20260507224543 | 55 | 227 | 0.0 | 1.7 | 0.00 | 0.46 | 0.24 | 79 | 1005.1 |
| 20260507224103 | 55 | 201 | 0.0 | 4.3 | 0.00 | 0.46 | 0.24 | 79 | 1005.1 |
| 20260507223541 | 55 | 212 | 0.0 | 4.3 | 0.00 | 0.46 | 0.24 | 78 | 1005.1 |
| 20260507223057 | 55 | 229 | 0.0 | 2.6 | 0.00 | 0.46 | 0.24 | 78 | 1005.0 |
| 20260507222534 | 55 | 233 | 0.0 | 3.5 | 0.00 | 0.46 | 0.24 | 79 | 1004.9 |
| 20260507222052 | 55 | 229 | 0.0 | 7.0 | 0.00 | 0.46 | 0.24 | 79 | 1004.9 |
| 20260507221503 | 55 | 219 | 2.6 | 7.0 | 0.00 | 0.46 | 0.24 | 79 | 1005.1 |
| 20260507221045 | 55 | 240 | 0.9 | 5.2 | 0.00 | 0.46 | 0.24 | 80 | 1005.0 |
| 20260507220508 | 55 | 217 | 0.0 | 6.1 | 0.00 | 0.46 | 0.24 | 82 | 1005.1 |
| 20260507220037 | 55 | 229 | 2.6 | 7.0 | 0.00 | 0.46 | 0.24 | 82 | 1005.1 |
| 20260507215558 | 55 | 214 | 2.6 | 6.1 | 0.00 | 0.46 | 0.24 | 83 | 1005.2 |
| 20260507215030 | 55 | 221 | 1.7 | 7.0 | 0.00 | 0.46 | 0.24 | 83 | 1005.0 |
| 20260507214556 | 54 | 212 | 1.7 | 7.0 | 0.00 | 0.46 | 0.24 | 85 | 1005.1 |
| 20260507214030 | 54 | 199 | 0.0 | 4.3 | 0.00 | 0.46 | 0.24 | 87 | 1005.0 |
| 20260507213609 | 54 | 230 | 0.9 | 4.3 | 0.00 | 0.46 | 0.24 | 88 | 1005.0 |
| 20260507213020 | 54 | 224 | 0.9 | 6.1 | 0.00 | 0.46 | 0.24 | 88 | 1004.9 |
| 20260507212544 | 54 | 236 | 0.9 | 6.1 | 0.00 | 0.46 | 0.24 | 88 | 1005.0 |
| 20260507212028 | 54 | 216 | 1.7 | 7.0 | 0.00 | 0.46 | 0.24 | 87 | 1004.9 |
| 20260507211600 | 54 | 229 | 0.0 | 7.0 | 0.00 | 0.46 | 0.24 | 88 | 1004.9 |
| 20260507211006 | 54 | 215 | 0.0 | 6.1 | 0.00 | 0.46 | 0.24 | 88 | 1005.0 |
| 20260507210538 | 54 | 231 | 1.7 | 6.1 | 0.00 | 0.46 | 0.24 | 87 | 1005.0 |
| 20260507210003 | 54 | 230 | 0.9 | 7.0 | 0.00 | 0.46 | 0.24 | 88 | 1004.8 |
| 20260507205541 | 54 | 200 | 1.7 | 7.0 | 0.00 | 0.46 | 0.24 | 87 | 1004.9 |
| 20260507205104 | 54 | 215 | 1.7 | 8.7 | 0.00 | 0.46 | 0.24 | 87 | 1005.0 |
| 20260507204521 | 54 | 224 | 4.3 | 8.7 | 0.00 | 0.46 | 0.24 | 87 | 1005.0 |
| 20260507204056 | 54 | 214 | 3.5 | 8.7 | 0.00 | 0.46 | 0.24 | 87 | 1004.8 |
| 20260507203521 | 54 | 226 | 3.5 | 8.7 | 0.00 | 0.46 | 0.24 | 87 | 1004.9 |
| 20260507203056 | 54 | 221 | 0.9 | 9.6 | 0.00 | 0.46 | 0.24 | 87 | 1005.0 |
| 20260507202531 | 54 | 222 | 1.7 | 9.6 | 0.00 | 0.46 | 0.24 | 87 | 1004.8 |
| 20260507202008 | 54 | 240 | 1.7 | 8.7 | 0.00 | 0.46 | 0.24 | 87 | 1004.7 |
| 20260507201536 | 54 | 207 | 1.7 | 9.6 | 0.00 | 0.46 | 0.24 | 89 | 1004.8 |
| 20260507201003 | 54 | 225 | 5.2 | 9.6 | 0.00 | 0.46 | 0.24 | 88 | 1004.7 |
| 20260507200525 | 54 | 222 | 6.1 | 10.4 | 0.00 | 0.46 | 0.24 | 88 | 1004.9 |
| 20260507200008 | 54 | 221 | 7.0 | 10.4 | 0.00 | 0.46 | 0.24 | 88 | 1004.9 |
| 20260507195537 | 54 | 211 | 5.2 | 9.6 | 0.00 | 0.46 | 0.24 | 88 | 1004.9 |
| 20260507195057 | 54 | 213 | 4.3 | 7.8 | 0.00 | 0.46 | 0.24 | 87 | 1004.9 |
| 20260507194507 | 54 | 214 | 5.2 | 10.4 | 0.00 | 0.46 | 0.24 | 88 | 1005.0 |
| 20260507194026 | 54 | 236 | 5.2 | 10.4 | 0.00 | 0.46 | 0.24 | 88 | 1005.2 |
| 20260507193609 | 54 | 229 | 5.2 | 9.6 | 0.00 | 0.46 | 0.24 | 88 | 1005.2 |
| 20260507193034 | 54 | 212 | 5.2 | 8.7 | 0.00 | 0.46 | 0.24 | 88 | 1005.4 |
| 20260507192602 | 54 | 226 | 6.1 | 8.7 | 0.00 | 0.46 | 0.24 | 88 | 1005.3 |
| 20260507192012 | 53 | 215 | 2.6 | 8.7 | 0.00 | 0.46 | 0.24 | 87 | 1005.3 |
| 20260507191543 | 53 | 213 | 4.3 | 8.7 | 0.00 | 0.46 | 0.24 | 87 | 1005.3 |
| 20260507191006 | 54 | 212 | 5.2 | 8.7 | 0.00 | 0.46 | 0.24 | 87 | 1005.5 |
| 20260507190527 | 53 | 224 | 5.2 | 9.6 | 0.00 | 0.46 | 0.24 | 87 | 1005.6 |
| 20260507190004 | 54 | 198 | 5.2 | 9.6 | 0.00 | 0.46 | 0.24 | 87 | 1005.8 |
| 20260507185520 | 54 | 211 | 5.2 | 9.6 | 0.00 | 0.46 | 0.24 | 86 | 1005.7 |
| 20260507185040 | 54 | 216 | 4.3 | 9.6 | 0.00 | 0.46 | 0.24 | 84 | 1005.8 |
| 20260507184515 | 54 | 258 | 3.5 | 8.7 | 0.00 | 0.46 | 0.24 | 84 | 1005.8 |
| 20260507184035 | 54 | 208 | 2.6 | 7.0 | 0.00 | 0.46 | 0.24 | 84 | 1005.8 |
| 20260507183557 | 54 | 214 | 2.6 | 7.0 | 0.00 | 0.46 | 0.24 | 84 | 1005.9 |
| 20260507183114 | 53 | 223 | 3.5 | 8.7 | 0.00 | 0.46 | 0.24 | 83 | 1005.9 |
| 20260507182530 | 54 | 218 | 2.6 | 7.8 | 0.00 | 0.46 | 0.24 | 85 | 1005.9 |
| 20260507182111 | 54 | 223 | 3.5 | 7.0 | 0.00 | 0.46 | 0.24 | 84 | 1005.9 |
| 20260507181519 | 54 | 217 | 1.7 | 7.8 | 0.00 | 0.46 | 0.24 | 83 | 1006.0 |
| 20260507181038 | 54 | 224 | 3.5 | 7.8 | 0.00 | 0.46 | 0.24 | 83 | 1006.1 |
| 20260507180559 | 54 | 208 | 4.3 | 7.8 | 0.00 | 0.46 | 0.24 | 82 | 1006.0 |
| 20260507180014 | 56 | 210 | 4.3 | 8.7 | 0.00 | 0.46 | 0.24 | 80 | 1006.2 |
| 20260507175528 | 58 | 226 | 3.5 | 7.8 | 0.00 | 0.46 | 0.24 | 69 | 1006.2 |
| 20260507175049 | 59 | 212 | 0.0 | 0.9 | 0.00 | 0.46 | 0.24 | 66 | 1006.2 |
| 20260507174530 | 59 | 274 | 0.0 | 2.6 | 0.00 | 0.46 | 0.24 | 69 | 1006.3 |
| 20260507174042 | 58 | 202 | 0.0 | 2.6 | 0.00 | 0.46 | 0.24 | 68 | 1006.3 |
| 20260507173507 | 58 | 245 | 0.0 | 1.7 | 0.00 | 0.46 | 0.24 | 65 | 1006.3 |
| 20260507173101 | 58 | 136 | 0.0 | 1.7 | 0.00 | 0.46 | 0.24 | 68 | 1006.3 |
| 20260507172535 | 58 | 276 | 0.0 | 3.5 | 0.00 | 0.46 | 0.24 | 72 | 1006.3 |
| 20260507172014 | 57 | 200 | 0.0 | 0.9 | 0.00 | 0.46 | 0.24 | 73 | 1006.2 |
| 20260507171553 | 57 | 212 | 0.0 | 0.9 | 0.00 | 0.46 | 0.24 | 75 | 1006.2 |
| 20260507171029 | 56 | 234 | 0.0 | 2.6 | 0.00 | 0.46 | 0.24 | 78 | 1006.3 |
| 20260507170512 | 56 | 229 | 0.0 | 2.6 | 0.00 | 0.46 | 0.24 | 77 | 1006.5 |
| 20260507170050 | 56 | 245 | 0.0 | 2.6 | 0.00 | 0.46 | 0.24 | 77 | 1006.6 |
| 20260507165514 | 55 | 301 | 0.0 | 6.1 | 0.00 | 0.46 | 0.24 | 77 | 1006.6 |
| 20260507164510 | 55 | 276 | 0.0 | 0.9 | 0.00 | 0.46 | 0.24 | 78 | 1006.5 |
| 20260507164044 | 55 | 316 | 0.0 | 1.7 | 0.00 | 0.46 | 0.24 | 80 | 1006.6 |
| 20260507163508 | 55 | 283 | 0.0 | 1.7 | 0.00 | 0.46 | 0.24 | 80 | 1006.6 |
| 20260507163022 | 55 | 233 | 0.0 | 0.9 | 0.00 | 0.46 | 0.24 | 82 | 1006.6 |
| 20260507162556 | 54 | 285 | 0.0 | 2.6 | 0.00 | 0.46 | 0.24 | 83 | 1006.7 |
| 20260507162039 | 54 | 191 | 0.0 | 2.6 | 0.00 | 0.46 | 0.24 | 83 | 1006.7 |
| 20260507161607 | 54 | 224 | 0.0 | 1.7 | 0.00 | 0.46 | 0.24 | 83 | 1006.9 |
| 20260507161008 | 53 | 217 | 0.0 | 1.7 | 0.00 | 0.46 | 0.24 | 86 | 1006.8 |
| 20260507160533 | 53 | 321 | 0.0 | 0.9 | 0.00 | 0.46 | 0.24 | 89 | 1006.8 |
| 20260507160109 | 52 | 278 | 0.0 | 0.9 | 0.00 | 0.46 | 0.24 | 91 | 1006.8 |
| 20260507155543 | 52 | 260 | 0.0 | 3.5 | 0.00 | 0.46 | 0.24 | 91 | 1007.1 |
| 20260507155103 | 52 | 274 | 0.0 | 3.5 | 0.00 | 0.46 | 0.24 | 92 | 1007.0 |
| 20260507154513 | 51 | 89 | 0.0 | 3.5 | 0.00 | 0.46 | 0.24 | 92 | 1007.0 |
| 20260507154052 | 51 | 260 | 0.0 | 0.0 | 0.00 | 0.46 | 0.24 | 93 | 1007.2 |
| 20260507153502 | 50 | 246 | 0.0 | 1.7 | 0.00 | 0.46 | 0.24 | 93 | 1007.1 |
| 20260507153132 | 51 | 269 | 0.0 | 5.2 | 0.00 | 0.46 | 0.24 | 94 | 1007.2 |
| 20260507152017 | 50 | 30 | 0.0 | 0.0 | 0.01 | 0.46 | 0.24 | 94 | 1007.2 |
| 20260507151538 | 50 | 28 | 0.0 | 0.0 | 0.01 | 0.46 | 0.24 | 94 | 1007.1 |
| 20260507151056 | 50 | 234 | 0.0 | 0.0 | 0.01 | 0.46 | 0.24 | 95 | 1007.1 |
| 20260507150510 | 50 | 209 | 0.0 | 0.0 | 0.01 | 0.46 | 0.24 | 95 | 1007.1 |
| 20260507150029 | 50 | 198 | 0.0 | 0.0 | 0.01 | 0.46 | 0.24 | 95 | 1007.0 |
| 20260507145606 | 49 | 165 | 0.0 | 0.9 | 0.01 | 0.46 | 0.24 | 95 | 1007.0 |
| 20260507145016 | 49 | 273 | 0.0 | 1.7 | 0.01 | 0.46 | 0.24 | 95 | 1007.6 |
| 20260507144539 | 50 | 295 | 0.0 | 0.0 | 0.01 | 0.46 | 0.24 | 95 | 1007.5 |
| 20260507144059 | 49 | 274 | 0.0 | 0.0 | 0.01 | 0.46 | 0.24 | 95 | 1007.3 |
| 20260507143522 | 49 | 238 | 0.0 | 0.0 | 0.01 | 0.46 | 0.24 | 95 | 1007.2 |
| 20260507143005 | 49 | 9 | 0.0 | 0.0 | 0.00 | 0.45 | 0.23 | 95 | 1007.3 |
| 20260507142533 | 48 | 302 | 0.0 | 0.9 | 0.00 | 0.45 | 0.23 | 95 | 1007.5 |
| 20260507142001 | 48 | 226 | 0.0 | 0.0 | 0.00 | 0.45 | 0.23 | 95 | 1007.5 |
| 20260507141521 | 48 | 139 | 0.0 | 0.0 | 0.00 | 0.45 | 0.23 | 95 | 1007.4 |
| 20260507141043 | 48 | 297 | 0.0 | 0.0 | 0.00 | 0.45 | 0.23 | 95 | 1007.3 |
| 20260507140604 | 48 | 259 | 0.0 | 0.0 | 0.00 | 0.45 | 0.23 | 95 | 1007.5 |
| 20260507140035 | 47 | 230 | 0.0 | 0.0 | 0.00 | 0.45 | 0.23 | 95 | 1007.3 |
| 20260507135556 | 47 | 229 | 0.0 | 0.0 | 0.00 | 0.45 | 0.23 | 95 | 1007.3 |
| 20260507135012 | 47 | 281 | 0.0 | 0.0 | 0.00 | 0.45 | 0.23 | 95 | 1007.2 |
| 20260507134535 | 47 | 94 | 0.0 | 0.0 | 0.00 | 0.45 | 0.23 | 95 | 1007.0 |
| 20260507134056 | 47 | 55 | 0.0 | 0.0 | 0.00 | 0.45 | 0.23 | 95 | 1006.5 |
| 20260507133511 | 47 | 283 | 0.0 | 0.9 | 0.00 | 0.45 | 0.23 | 95 | 1006.7 |
| 20260507133034 | 47 | 75 | 0.0 | 0.9 | 0.00 | 0.45 | 0.23 | 95 | 1006.8 |
| 20260507132551 | 47 | 21 | 0.0 | 0.9 | 0.00 | 0.45 | 0.23 | 95 | 1006.9 |
| 20260507132002 | 47 | 52 | 0.0 | 0.0 | 0.01 | 0.45 | 0.23 | 95 | 1007.0 |
| 20260507131536 | 47 | 301 | 0.0 | 0.0 | 0.01 | 0.45 | 0.23 | 95 | 1007.2 |
| 20260507131055 | 47 | 229 | 0.0 | 0.0 | 0.01 | 0.45 | 0.23 | 95 | 1007.5 |
| 20260507130504 | 47 | 68 | 0.0 | 0.0 | 0.01 | 0.45 | 0.23 | 95 | 1007.3 |
| 20260507130038 | 47 | 207 | 0.0 | 0.0 | 0.02 | 0.45 | 0.23 | 95 | 1007.3 |
| 20260507125601 | 47 | 182 | 0.0 | 0.0 | 0.02 | 0.45 | 0.23 | 95 | 1007.1 |
| 20260507125034 | 47 | 259 | 0.0 | 0.0 | 0.03 | 0.45 | 0.23 | 95 | 1007.3 |
| 20260507124551 | 47 | 281 | 0.0 | 0.0 | 0.04 | 0.45 | 0.23 | 95 | 1007.2 |
| 20260507124034 | 47 | 332 | 0.0 | 0.0 | 0.04 | 0.45 | 0.23 | 95 | 1006.9 |
| 20260507123530 | 47 | 53 | 0.0 | 0.9 | 0.04 | 0.45 | 0.23 | 95 | 1006.7 |
| 20260507123109 | 47 | 141 | 0.0 | 0.0 | 0.04 | 0.45 | 0.23 | 95 | 1006.9 |
| 20260507122508 | 47 | 73 | 0.0 | 0.0 | 0.05 | 0.45 | 0.23 | 95 | 1007.0 |
| 20260507122033 | 47 | 81 | 0.0 | 0.9 | 0.04 | 0.44 | 0.22 | 95 | 1007.1 |
| 20260507121515 | 47 | 49 | 0.0 | 0.9 | 0.05 | 0.44 | 0.22 | 95 | 1007.2 |
| 20260507121004 | 48 | 267 | 0.0 | 1.7 | 0.05 | 0.44 | 0.22 | 96 | 1006.9 |
| 20260507120551 | 48 | 49 | 0.0 | 1.7 | 0.05 | 0.44 | 0.22 | 95 | 1006.9 |
| 20260507120010 | 48 | 184 | 0.0 | 0.0 | 0.04 | 0.43 | 0.21 | 96 | 1006.9 |
| 20260507115555 | 48 | 338 | 0.0 | 0.0 | 0.04 | 0.43 | 0.21 | 96 | 1007.6 |
| 20260507115004 | 48 | 44 | 0.0 | 0.9 | 0.03 | 0.42 | 0.20 | 96 | 1007.5 |
| 20260507114529 | 48 | 277 | 0.0 | 0.9 | 0.03 | 0.41 | 0.19 | 96 | 1007.3 |
| 20260507114054 | 48 | 283 | 0.0 | 2.6 | 0.03 | 0.41 | 0.19 | 96 | 1007.1 |
| 20260507113509 | 48 | 31 | 0.0 | 8.7 | 0.03 | 0.41 | 0.19 | 96 | 1006.5 |
| 20260507113044 | 48 | 115 | 0.0 | 8.7 | 0.03 | 0.41 | 0.19 | 96 | 1006.2 |
| 20260507112530 | 48 | 27 | 0.0 | 0.9 | 0.02 | 0.40 | 0.18 | 96 | 1006.2 |
| 20260507112050 | 48 | 301 | 0.0 | 0.9 | 0.02 | 0.40 | 0.18 | 96 | 1006.4 |
| 20260507111520 | 49 | 62 | 0.0 | 0.9 | 0.02 | 0.39 | 0.17 | 96 | 1006.5 |
| 20260507111053 | 49 | 25 | 0.0 | 0.0 | 0.04 | 0.39 | 0.17 | 96 | 1006.6 |
| 20260507110510 | 49 | 333 | 0.0 | 0.0 | 0.09 | 0.39 | 0.17 | 96 | 1006.8 |
| 20260507110039 | 49 | 212 | 0.0 | 0.0 | 0.10 | 0.39 | 0.17 | 96 | 1006.6 |
| 20260507105604 | 49 | 73 | 0.0 | 0.0 | 0.11 | 0.39 | 0.17 | 96 | 1006.5 |
| 20260507105033 | 49 | 84 | 0.0 | 0.0 | 0.13 | 0.39 | 0.17 | 96 | 1006.3 |
| 20260507104507 | 49 | 67 | 0.0 | 0.0 | 0.13 | 0.38 | 0.16 | 96 | 1006.4 |
| 20260507104004 | 49 | 68 | 0.0 | 0.0 | 0.15 | 0.38 | 0.16 | 96 | 1006.3 |
| 20260507103541 | 50 | 72 | 0.0 | 0.0 | 0.16 | 0.38 | 0.16 | 96 | 1006.2 |
| 20260507103025 | 50 | 262 | 0.0 | 0.0 | 0.16 | 0.38 | 0.16 | 96 | 1006.0 |
| 20260507102503 | 50 | 191 | 0.0 | 0.0 | 0.16 | 0.38 | 0.16 | 96 | 1006.1 |
| 20260507102028 | 50 | 148 | 0.0 | 3.5 | 0.16 | 0.38 | 0.16 | 96 | 1005.8 |
| 20260507101551 | 50 | 332 | 0.0 | 7.8 | 0.15 | 0.37 | 0.15 | 96 | 1005.8 |
| 20260507101009 | 50 | 56 | 0.9 | 7.8 | 0.12 | 0.34 | 0.12 | 96 | 1005.4 |
| 20260507100530 | 51 | 260 | 0.0 | 0.9 | 0.08 | 0.30 | 0.08 | 96 | 1006.0 |
| 20260507100100 | 51 | 341 | 0.0 | 2.6 | 0.07 | 0.28 | 0.07 | 96 | 1005.6 |
| 20260507095514 | 52 | 56 | 0.0 | 5.2 | 0.06 | 0.28 | 0.06 | 96 | 1005.1 |
| 20260507095056 | 53 | 16 | 0.0 | 5.2 | 0.04 | 0.26 | 0.04 | 96 | 1005.6 |
| 20260507094513 | 53 | 266 | 0.0 | 0.0 | 0.03 | 0.25 | 0.03 | 96 | 1005.5 |
| 20260507094059 | 53 | 29 | 0.0 | 0.0 | 0.01 | 0.23 | 0.01 | 96 | 1005.2 |
| 20260507093517 | 53 | 257 | 0.0 | 0.0 | 0.00 | 0.22 | 0.00 | 96 | 1005.2 |
| 20260507093050 | 53 | 272 | 0.0 | 0.0 | 0.00 | 0.22 | 0.00 | 96 | 1005.1 |
| 20260507092534 | 53 | 221 | 0.0 | 0.0 | 0.00 | 0.22 | 0.00 | 96 | 1005.5 |
| 20260507092023 | 53 | 233 | 0.0 | 0.0 | 0.00 | 0.22 | 0.00 | 96 | 1005.5 |
| 20260507091512 | 53 | 258 | 0.0 | 0.0 | 0.00 | 0.22 | 0.00 | 96 | 1005.8 |
| 20260507091037 | 53 | 236 | 0.0 | 0.0 | 0.00 | 0.22 | 0.00 | 96 | 1005.8 |
| 20260507090557 | 52 | 183 | 0.0 | 1.7 | 0.00 | 0.22 | 0.00 | 96 | 1005.4 |
| 20260507090009 | 52 | 211 | 0.0 | 0.9 | 0.00 | 0.22 | 0.00 | 96 | 1006.0 |
| 20260507085541 | 52 | 250 | 0.0 | 2.6 | 0.00 | 0.22 | 0.00 | 96 | 1005.8 |
| 20260507085007 | 52 | 229 | 0.0 | 3.5 | 0.00 | 0.22 | 0.00 | 96 | 1005.3 |
| 20260507084552 | 52 | 203 | 0.0 | 6.1 | 0.00 | 0.22 | 0.00 | 96 | 1005.4 |
| 20260507084108 | 52 | 212 | 0.0 | 7.8 | 0.00 | 0.22 | 0.00 | 96 | 1005.2 |
| 20260507083542 | 52 | 228 | 3.5 | 7.8 | 0.00 | 0.22 | 0.00 | 96 | 1005.2 |
| 20260507083003 | 53 | 220 | 4.3 | 8.7 | 0.00 | 0.22 | 0.00 | 96 | 1005.1 |
| 20260507082526 | 53 | 217 | 1.7 | 8.7 | 0.00 | 0.22 | 0.00 | 96 | 1005.0 |
| 20260507082053 | 53 | 214 | 5.2 | 8.7 | 0.00 | 0.22 | 0.00 | 96 | 1005.1 |
| 20260507081530 | 53 | 220 | 4.3 | 8.7 | 0.00 | 0.22 | 0.00 | 96 | 1005.1 |
| 20260507081054 | 53 | 228 | 1.7 | 8.7 | 0.00 | 0.22 | 0.00 | 96 | 1005.1 |
| 20260507080542 | 54 | 207 | 0.9 | 5.2 | 0.00 | 0.22 | 0.00 | 96 | 1005.2 |
| 20260507080038 | 53 | 222 | 0.0 | 4.3 | 0.00 | 0.22 | 0.00 | 96 | 1005.2 |
| 20260507075521 | 54 | 212 | 0.9 | 4.3 | 0.00 | 0.22 | 0.00 | 96 | 1005.0 |
| 20260507075014 | 54 | 212 | 0.0 | 3.5 | 0.00 | 0.22 | 0.00 | 96 | 1005.0 |
| 20260507074601 | 54 | 208 | 0.0 | 5.2 | 0.00 | 0.22 | 0.00 | 96 | 1005.3 |
| 20260507074018 | 53 | 215 | 0.0 | 7.0 | 0.00 | 0.22 | 0.00 | 96 | 1005.5 |
| 20260507073502 | 53 | 247 | 0.0 | 7.0 | 0.00 | 0.22 | 0.00 | 96 | 1005.6 |
| 20260507073042 | 53 | 231 | 0.9 | 7.0 | 0.00 | 0.22 | 0.00 | 96 | 1005.5 |
| 20260507072522 | 54 | 234 | 0.0 | 6.1 | 0.00 | 0.22 | 0.00 | 96 | 1005.4 |
| 20260507072106 | 54 | 199 | 0.0 | 5.2 | 0.00 | 0.22 | 0.00 | 96 | 1005.7 |
| 20260507071550 | 54 | 217 | 0.0 | 7.8 | 0.00 | 0.22 | 0.00 | 96 | 1005.8 |
| 20260507071031 | 54 | 214 | 0.0 | 5.2 | 0.00 | 0.22 | 0.00 | 96 | 1005.9 |
| 20260507070509 | 54 | 217 | 0.0 | 7.0 | 0.00 | 0.22 | 0.00 | 96 | 1005.7 |
| 20260507070033 | 54 | 231 | 0.9 | 7.0 | 0.00 | 0.22 | 0.00 | 96 | 1005.6 |
| 20260507065514 | 54 | 223 | 0.0 | 7.0 | 0.00 | 0.22 | 0.00 | 96 | 1005.5 |
| 20260507065048 | 54 | 218 | 0.9 | 7.8 | 0.00 | 0.22 | 0.00 | 96 | 1005.5 |
| 20260507064548 | 54 | 215 | 1.7 | 7.8 | 0.00 | 0.22 | 0.00 | 96 | 1005.6 |
| 20260507064013 | 54 | 220 | 0.9 | 7.0 | 0.00 | 0.22 | 0.00 | 96 | 1005.7 |
| 20260507063547 | 54 | 208 | 0.9 | 7.0 | 0.00 | 0.22 | 0.00 | 96 | 1005.5 |
| 20260507063009 | 54 | 235 | 0.9 | 7.8 | 0.00 | 0.22 | 0.00 | 96 | 1005.6 |
| 20260507062553 | 54 | 222 | 1.7 | 8.7 | 0.00 | 0.22 | 0.00 | 96 | 1005.6 |
| 20260507062031 | 54 | 240 | 1.7 | 10.4 | 0.00 | 0.22 | 0.00 | 96 | 1005.6 |
| 20260507061516 | 54 | 246 | 4.3 | 10.4 | 0.00 | 0.22 | 0.00 | 96 | 1005.6 |
| 20260507061056 | 54 | 243 | 2.6 | 7.8 | 0.00 | 0.22 | 0.00 | 96 | 1005.6 |
| 20260507060544 | 54 | 221 | 1.7 | 9.6 | 0.00 | 0.22 | 0.00 | 96 | 1005.8 |
| 20260507060018 | 54 | 220 | 1.7 | 10.4 | 0.00 | 0.22 | 0.00 | 96 | 1005.9 |
| 20260507055553 | 54 | 224 | 0.0 | 10.4 | 0.00 | 0.22 | 0.00 | 96 | 1005.8 |
| 20260507055007 | 54 | 234 | 0.9 | 10.4 | 0.00 | 0.22 | 0.00 | 96 | 1006.1 |
| 20260507054534 | 54 | 259 | 3.5 | 10.4 | 0.00 | 0.22 | 0.00 | 96 | 1006.0 |
| 20260507054010 | 54 | 220 | 1.7 | 9.6 | 0.00 | 0.22 | 0.00 | 96 | 1006.2 |
| 20260507053537 | 54 | 224 | 1.7 | 10.4 | 0.00 | 0.22 | 0.00 | 96 | 1006.4 |
| 20260507053001 | 54 | 191 | 2.6 | 10.4 | 0.00 | 0.22 | 0.00 | 96 | 1006.3 |
| 20260507052538 | 54 | 226 | 1.7 | 10.4 | 0.00 | 0.22 | 0.00 | 96 | 1006.5 |
| 20260507052015 | 54 | 252 | 4.3 | 11.3 | 0.00 | 0.22 | 0.00 | 96 | 1006.6 |
| 20260507051507 | 54 | 219 | 3.5 | 12.2 | 0.00 | 0.22 | 0.00 | 96 | 1006.5 |
| 20260507051045 | 54 | 217 | 2.6 | 12.2 | 0.00 | 0.22 | 0.00 | 96 | 1006.6 |
| 20260507050507 | 54 | 218 | 5.2 | 13.0 | 0.00 | 0.22 | 0.00 | 96 | 1006.5 |
| 20260507050056 | 54 | 229 | 6.1 | 13.0 | 0.00 | 0.22 | 0.00 | 96 | 1006.6 |
| 20260507045536 | 54 | 219 | 3.5 | 12.2 | 0.00 | 0.22 | 0.00 | 96 | 1006.6 |
| 20260507045019 | 54 | 223 | 5.2 | 13.9 | 0.00 | 0.22 | 0.00 | 96 | 1006.7 |
| 20260507044542 | 54 | 228 | 7.0 | 13.9 | 0.00 | 0.22 | 0.00 | 96 | 1006.5 |
| 20260507044105 | 55 | 236 | 7.0 | 13.0 | 0.00 | 0.22 | 0.00 | 96 | 1006.6 |
| 20260507043523 | 55 | 242 | 4.3 | 13.0 | 0.00 | 0.22 | 0.00 | 95 | 1006.8 |
| 20260507043056 | 55 | 250 | 4.3 | 12.2 | 0.00 | 0.22 | 0.00 | 95 | 1006.9 |
| 20260507042531 | 55 | 225 | 3.5 | 13.9 | 0.00 | 0.22 | 0.00 | 95 | 1006.9 |
| 20260507042001 | 55 | 233 | 3.5 | 13.9 | 0.00 | 0.22 | 0.00 | 95 | 1007.0 |
| 20260507041535 | 55 | 215 | 3.5 | 13.0 | 0.00 | 0.22 | 0.00 | 95 | 1007.0 |
| 20260507041032 | 55 | 226 | 2.6 | 10.4 | 0.00 | 0.22 | 0.00 | 95 | 1007.0 |
| 20260507040554 | 55 | 228 | 0.9 | 14.8 | 0.00 | 0.22 | 0.00 | 95 | 1006.8 |
| 20260507040018 | 55 | 224 | 5.2 | 20.0 | 0.00 | 0.22 | 0.00 | 95 | 1006.7 |
| 20260507035507 | 55 | 229 | 11.3 | 20.0 | 0.00 | 0.22 | 0.22 | 95 | 1006.8 |
| 20260507035058 | 55 | 230 | 5.2 | 18.2 | 0.00 | 0.22 | 0.22 | 95 | 1006.9 |
| 20260507034517 | 55 | 245 | 7.8 | 18.2 | 0.00 | 0.22 | 0.22 | 95 | 1007.0 |
| 20260507034100 | 55 | 238 | 11.3 | 18.2 | 0.00 | 0.22 | 0.22 | 95 | 1006.9 |
| 20260507033538 | 55 | 208 | 10.4 | 17.4 | 0.00 | 0.22 | 0.22 | 95 | 1007.0 |
| 20260507033058 | 55 | 223 | 8.7 | 17.4 | 0.00 | 0.22 | 0.22 | 95 | 1006.7 |
| 20260507032521 | 55 | 225 | 10.4 | 17.4 | 0.00 | 0.22 | 0.22 | 95 | 1006.7 |
| 20260507032012 | 55 | 222 | 10.4 | 17.4 | 0.00 | 0.22 | 0.22 | 95 | 1006.8 |
| 20260507031544 | 55 | 217 | 11.3 | 16.5 | 0.00 | 0.22 | 0.22 | 95 | 1006.7 |
| 20260507031038 | 55 | 226 | 8.7 | 16.5 | 0.00 | 0.22 | 0.22 | 95 | 1006.7 |
| 20260507030519 | 55 | 221 | 10.4 | 16.5 | 0.00 | 0.22 | 0.22 | 95 | 1006.7 |
| 20260507030028 | 55 | 215 | 8.7 | 18.2 | 0.00 | 0.22 | 0.22 | 95 | 1006.9 |
| 20260507025508 | 55 | 231 | 6.1 | 18.2 | 0.00 | 0.22 | 0.22 | 95 | 1007.1 |
| 20260507025039 | 55 | 229 | 12.2 | 18.2 | 0.00 | 0.22 | 0.22 | 95 | 1007.2 |
| 20260507024551 | 56 | 218 | 11.3 | 19.1 | 0.00 | 0.22 | 0.22 | 95 | 1007.2 |
| 20260507024038 | 56 | 227 | 12.2 | 19.1 | 0.00 | 0.22 | 0.22 | 95 | 1007.5 |
| 20260507023524 | 55 | 229 | 12.2 | 19.1 | 0.00 | 0.22 | 0.22 | 95 | 1007.5 |
| 20260507023056 | 56 | 224 | 12.2 | 20.0 | 0.00 | 0.22 | 0.22 | 95 | 1007.5 |
| 20260507022542 | 56 | 210 | 13.0 | 20.9 | 0.00 | 0.22 | 0.22 | 95 | 1007.5 |
| 20260507022031 | 56 | 229 | 12.2 | 20.9 | 0.00 | 0.22 | 0.22 | 95 | 1007.5 |
| 20260507021512 | 56 | 206 | 13.9 | 20.9 | 0.00 | 0.22 | 0.22 | 95 | 1007.5 |
| 20260507021055 | 56 | 229 | 13.9 | 21.7 | 0.00 | 0.22 | 0.22 | 95 | 1007.5 |
| 20260507020518 | 56 | 234 | 14.8 | 21.7 | 0.00 | 0.22 | 0.22 | 95 | 1007.6 |
| 20260507020108 | 56 | 226 | 14.8 | 20.0 | 0.00 | 0.22 | 0.22 | 95 | 1007.6 |
| 20260507015526 | 55 | 218 | 14.8 | 22.6 | 0.01 | 0.22 | 0.22 | 95 | 1007.7 |
| 20260507015005 | 56 | 227 | 15.6 | 21.7 | 0.02 | 0.22 | 0.22 | 95 | 1007.9 |
| 20260507014528 | 56 | 215 | 15.6 | 21.7 | 0.04 | 0.22 | 0.22 | 95 | 1007.9 |
| 20260507014009 | 56 | 221 | 15.6 | 21.7 | 0.05 | 0.22 | 0.22 | 95 | 1007.9 |
| 20260507013559 | 56 | 215 | 17.4 | 22.6 | 0.07 | 0.22 | 0.22 | 95 | 1007.9 |
| 20260507013048 | 56 | 212 | 16.5 | 22.6 | 0.08 | 0.22 | 0.22 | 95 | 1007.9 |
| 20260507012515 | 56 | 213 | 16.5 | 23.5 | 0.08 | 0.22 | 0.22 | 95 | 1007.9 |
| 20260507012004 | 57 | 200 | 17.4 | 26.1 | 0.09 | 0.22 | 0.22 | 95 | 1008.0 |
| 20260507011531 | 57 | 226 | 15.6 | 26.1 | 0.09 | 0.22 | 0.22 | 95 | 1008.0 |
| 20260507011051 | 57 | 229 | 17.4 | 25.2 | 0.09 | 0.22 | 0.22 | 95 | 1008.1 |
| 20260507010532 | 57 | 222 | 18.2 | 25.2 | 0.09 | 0.22 | 0.22 | 95 | 1008.0 |
| 20260507010013 | 57 | 228 | 16.5 | 24.3 | 0.10 | 0.22 | 0.22 | 95 | 1008.0 |
| 20260507005552 | 56 | 211 | 13.0 | 20.0 | 0.09 | 0.21 | 0.21 | 95 | 1008.0 |